Location: Newark
(49.3000°N, 9.4667°E)
Time: 15:10:37
(UTC+00:00)

Tiros 1 - Pass Details

Date: 30 May 2019
Orbit: 631 x 664 km, 48.4° (Epoch: 18 June)

Event Time Altitude Azimuth Distance (km) Brightness Sun altitude
Rises 13:14:13 0° 282° (WNW) 2,943 10.8 54.4°
Reaches altitude 10° 13:16:51 10° 269° (W) 2,037 10.3 54.0°
Maximum altitude 13:20:39 25° 215° (SW) 1,310 9.9 53.6°
Drops below altitude 10° 13:24:28 10° 161° (SSE) 2,046 10.0 53.1°
Sets 13:27:08 0° 148° (SSE) 2,960 10.6 52.7°
